Weather History for Granada, Spain

Change the Weather History Date:

Tuesday, April 30, 2013

  Actual Average Record
Temperature  
Mean Temperature 49 °F -  
Max Temperature 57 °F 76 °F 91 °F (1997)
Min Temperature 41 °F 49 °F 41 °F (2012)
Degree Days  
Heating Degree Days 16    
Moisture  
Dew Point 41 °F    
Average Humidity 81    
Maximum Humidity 100    
Minimum Humidity 39    
Precipitation  
Precipitation 0.28 in - - ()
Sea Level Pressure  
Sea Level Pressure 29.89 in    
Wind  
Wind Speed 3 mph ()    
Max Wind Speed 9 mph    
Max Gust Speed -    
Visibility 5.9 miles    
Events Rain    
Averages and records for this station are not official NWS values.
T = Trace of Precipitation, MM = Missing Value Source: Averaged Metar Reports

Daily Weather History Graph

Daily Weather History Graph

Search for Another Location

Airport:

Trip Planner

Search our weather history database for the weather conditions in past years. The results will help you decide how hot, cold, wet, or windy it might be!

Date:

Astronomy

Apr. 30, 2013 Rise Set
Actual Time 7:21 AM CEST 9:03 PM CEST
Civil Twilight 6:53 AM CEST 9:31 PM CEST
Nautical Twilight 6:20 AM CEST 10:05 PM CEST
Astronomical Twilight 5:44 AM CEST 10:41 PM CEST
Moon 1:12 AM CEST (4/30) 11:35 AM CEST (4/30)
Length of Visible Light 14h 37m
Length of Day
13h 42m
Waning Gibbous, 73% of the Moon is Illuminated
Apr 30
Waning Gibbous
May 2
Last Quarter
May 10
New
May 18
First Quarter
May 25
Full

Hourly Weather History & Observations

Time (CEST) Temp. Windchill Dew Point Humidity Pressure Visibility Wind Dir Wind Speed Gust Speed Precip Events Conditions
2:00 AM 44 °F - 40 °F 82% 29.88 in 8 mi Calm Calm - -   Clear
6:00 AM 42.8 °F 41.1 °F 41.0 °F 93% 29.80 in 6.2 mi WSW 3.5 mph - N/A   Mostly Cloudy
6:30 AM 42.8 °F 41.1 °F 41.0 °F 93% 29.80 in 6.2 mi WSW 3.5 mph - N/A Rain Light Rain
6:40 AM 42.8 °F 41.1 °F 41.0 °F 93% 29.80 in 3.7 mi SW 3.5 mph - N/A Rain Rain
7:00 AM 42.8 °F - 41.0 °F 93% 29.80 in 3.1 mi Variable 1.2 mph - N/A Rain Rain
7:16 AM 42.8 °F - 41.0 °F 93% 29.80 in 2.5 mi Calm Calm - N/A Rain Rain
7:30 AM 42.8 °F 41.1 °F 41.0 °F 93% 29.83 in 3.1 mi Variable 3.5 mph - N/A Rain Rain
8:00 AM 42 °F - 39 °F 84% 29.88 in 2 mi ESE 3.5 mph - - Rain Rain
8:00 AM 41.0 °F - 41.0 °F 100% 29.83 in 3.1 mi Variable 2.3 mph - N/A Rain Rain
8:30 AM 41.0 °F 36.4 °F 39.2 °F 93% 29.83 in 3.7 mi ESE 6.9 mph - N/A Rain Rain
9:00 AM 41.0 °F - 41.0 °F 100% 29.86 in 5.0 mi Variable 2.3 mph - N/A Rain Light Rain
9:17 AM 41.0 °F - 39.2 °F 93% 29.86 in 5.0 mi Variable 2.3 mph - N/A Rain Rain
9:30 AM 41.0 °F 39.0 °F 39.2 °F 93% 29.86 in 3.7 mi NE 3.5 mph - N/A Rain Rain
9:50 AM 41.0 °F 38.0 °F 39.2 °F 93% 29.86 in 5.6 mi NE 4.6 mph - N/A Rain Light Rain
10:00 AM 41.0 °F 39.0 °F 39.2 °F 93% 29.86 in 5.6 mi NNE 3.5 mph - N/A Rain Light Rain
10:30 AM 41.0 °F 39.0 °F 41.0 °F 100% 29.86 in 5.0 mi NE 3.5 mph - N/A Rain Light Rain
11:00 AM 41.0 °F - 41.0 °F 100% 29.89 in 6.2 mi Variable 2.3 mph - N/A Rain Light Rain
11:30 AM 42.8 °F - 41.0 °F 93% 29.89 in 6.2 mi Variable 2.3 mph - N/A Rain Light Rain
12:00 PM 42.8 °F - 41.0 °F 93% 29.89 in 6.2 mi Calm Calm - N/A Rain Light Rain
1:30 PM 46.4 °F 45.2 °F 42.8 °F 87% 29.89 in 6.2 mi NNW 3.5 mph - N/A   Mostly Cloudy
2:00 PM 48 °F - 41 °F 69% 29.92 in 9 mi West 4.6 mph - -   Partly Cloudy
2:00 PM 48.2 °F - 42.8 °F 82% 29.89 in 6.2 mi West 3.5 mph - N/A   Mostly Cloudy
2:30 PM 48.2 °F - 42.8 °F 82% 29.92 in 6.2 mi WNW 4.6 mph - N/A   Mostly Cloudy
3:00 PM 51.8 °F - 44.6 °F 76% 29.92 in 6.2 mi WNW 6.9 mph - N/A   Scattered Clouds
3:30 PM 53.6 °F - 46.4 °F 77% 29.92 in 6.2 mi West 9.2 mph - N/A   Scattered Clouds
4:00 PM 51.8 °F - 42.8 °F 71% 29.92 in 6.2 mi West 5.8 mph - N/A   Scattered Clouds
4:30 PM 51.8 °F - 42.8 °F 71% 29.89 in 6.2 mi WNW 5.8 mph - N/A   Scattered Clouds
5:00 PM 53.6 °F - 41.0 °F 62% 29.89 in 6.2 mi NW 4.6 mph - N/A   Mostly Cloudy
5:30 PM 55.4 °F - 44.6 °F 67% 29.92 in 6.2 mi NW 8.1 mph - N/A   Mostly Cloudy
6:00 PM 53.6 °F - 41.0 °F 62% 29.92 in 6.2 mi WNW 9.2 mph - N/A   Mostly Cloudy
6:30 PM 53.6 °F - 41.0 °F 62% 29.92 in 6.2 mi NNW 6.9 mph - N/A   Scattered Clouds
7:00 PM 53.6 °F - 39.2 °F 58% 29.92 in 6.2 mi WNW 3.5 mph - N/A   Scattered Clouds
7:30 PM 55.4 °F - 41.0 °F 58% 29.92 in 6.2 mi West 5.8 mph - N/A   Scattered Clouds
8:00 PM 55 °F - 37 °F 39% 29.92 in 19 mi West 9.2 mph - -   Scattered Clouds
8:00 PM 53.6 °F - 39.2 °F 58% 29.92 in 6.2 mi West 9.2 mph - N/A   Partly Cloudy
8:30 PM 53.6 °F - 39.2 °F 58% 29.95 in 6.2 mi WNW 3.5 mph - N/A   Partly Cloudy
9:00 PM 50.0 °F - 41.0 °F 71% 29.95 in 6.2 mi Variable 2.3 mph - N/A   Partly Cloudy
9:30 PM 48.2 °F - 41.0 °F 76% 29.95 in 6.2 mi WSW 3.5 mph - N/A   Partly Cloudy
10:00 PM 46.4 °F - 41.0 °F 81% 29.98 in 6.2 mi Variable 2.3 mph - N/A   Partly Cloudy
10:30 PM 44.6 °F - 41.0 °F 87% 29.98 in 6.2 mi Variable 1.2 mph - N/A   Partly Cloudy
11:00 PM 42.8 °F 41.1 °F 41.0 °F 93% 30.01 in 6.2 mi WSW 3.5 mph - N/A   Partly Cloudy